Location: Praha
(50.0830°N, 14.4670°E)
Time: 05:39:42
(UTC+02:00)

ISS - Pass Details

Date: 28 August 2019
Orbit: 410 x 421 km, 51.6° (Epoch: 18 August)

Event Time Altitude Azimuth Distance (km) Brightness Sun altitude
Exits shadow 04:02:24 - 144° (SE) 2,340 0.0 -18.5°
Rises 04:02:25 0° 144° (SE) 2,338 0.0 -18.5°
Enters shadow 04:59:36 -74° 248° (WSW) 12,658 3.7 -11.2°
Maximum altitude 05:39:45 20° 142° (SE) 1,027 -1.6 -5.5°
